TimeSAST,TemperatureF,Dew PointF,Humidity,Sea Level PressureIn,VisibilityMPH,Wind Direction,Wind SpeedMPH,Gust SpeedMPH,PrecipitationIn,Events,Conditions,WindDirDegrees,DateUTC
12:00 AM,68.0,62.6,83,29.83,-9999.0,ENE,11.5,-,N/A,,Clear,70,2013-03-31 22:00:00
1:00 AM,66.2,60.8,83,29.83,-9999.0,ENE,10.4,-,N/A,,Clear,70,2013-03-31 23:00:00
2:00 AM,67,61,77,29.85,12,NNE,5.8,,,,,30,2013-04-01 00:00:00
2:00 AM,66.2,60.8,83,29.86,6.2,ENE,10.4,-,N/A,,Partly Cloudy,60,2013-04-01 00:00:00
3:00 AM,71.6,60.8,69,29.83,-9999.0,Variable,5.8,-,N/A,,Clear,0,2013-04-01 01:00:00
4:00 AM,62.6,59.0,88,29.80,-9999.0,SSW,5.8,-,N/A,,Clear,200,2013-04-01 02:00:00
5:00 AM,64,60,83,29.81,12,WNW,5.8,,,,Mostly Cloudy,290,2013-04-01 03:00:00
5:00 AM,64.4,60.8,88,29.80,-9999.0,WNW,3.5,-,N/A,,Clear,290,2013-04-01 03:00:00
6:00 AM,71.6,60.8,69,29.86,6.2,North,3.5,-,N/A,,Partly Cloudy,350,2013-04-01 04:00:00
7:00 AM,69.8,59.0,68,29.83,-9999.0,ENE,9.2,-,N/A,,Clear,70,2013-04-01 05:00:00
8:00 AM,69,60,66,29.78,12,SE,8.1,,,,Partly Cloudy,130,2013-04-01 06:00:00
8:00 AM,69.8,59.0,68,29.80,6.2,Variable,6.9,-,N/A,,Scattered Clouds,0,2013-04-01 06:00:00
9:00 AM,73.4,55.4,53,29.80,6.2,NW,13.8,-,N/A,,Partly Cloudy,320,2013-04-01 07:00:00
10:00 AM,77.0,57.2,50,29.83,6.2,WNW,10.4,-,N/A,,Scattered Clouds,290,2013-04-01 08:00:00
11:00 AM,74,64,62,29.83,19,SW,12.7,,,,Partly Cloudy,230,2013-04-01 09:00:00
11:00 AM,73.4,62.6,69,29.83,6.2,WSW,12.7,-,N/A,,Scattered Clouds,240,2013-04-01 09:00:00
12:00 PM,75.2,60.8,61,29.83,6.2,SW,11.5,-,N/A,,Partly Cloudy,230,2013-04-01 10:00:00
1:00 PM,69.8,60.8,73,29.80,6.2,SSW,12.7,-,N/A,,Partly Cloudy,200,2013-04-01 11:00:00
2:00 PM,67,60,71,29.81,12,SSW,16.1,,,,Partly Cloudy,210,2013-04-01 12:00:00
2:00 PM,68.0,59.0,73,29.83,6.2,SSW,13.8,-,N/A,,Partly Cloudy,210,2013-04-01 12:00:00
3:00 PM,68.0,59.0,73,29.83,6.2,SSE,8.1,-,N/A,,Partly Cloudy,150,2013-04-01 13:00:00
4:00 PM,68.0,62.6,83,29.86,6.2,SE,10.4,-,N/A,,Partly Cloudy,140,2013-04-01 14:00:00
5:00 PM,67,59,70,29.84,12,SSE,8.1,,,,Partly Cloudy,150,2013-04-01 15:00:00
5:00 PM,68.0,59.0,73,29.83,6.2,SE,8.1,-,N/A,,Scattered Clouds,130,2013-04-01 15:00:00
6:00 PM,64.4,59.0,83,29.86,6.2,ENE,5.8,-,N/A,,Partly Cloudy,70,2013-04-01 16:00:00
7:00 PM,64.4,59.0,83,29.86,6.2,NE,6.9,-,N/A,,Partly Cloudy,50,2013-04-01 17:00:00
8:00 PM,67,54,54,29.86,12,NW,8.1,,,,Partly Cloudy,310,2013-04-01 18:00:00
8:00 PM,68.0,53.6,60,29.86,-9999.0,NW,5.8,-,N/A,,Clear,320,2013-04-01 18:00:00
9:00 PM,69.8,51.8,53,29.86,6.2,NNW,9.2,-,N/A,,Partly Cloudy,330,2013-04-01 19:00:00
10:00 PM,71.6,51.8,50,29.86,-9999.0,NW,13.8,-,N/A,,Clear,310,2013-04-01 20:00:00
11:00 PM,73.4,51.8,47,29.83,-9999.0,NW,21.9,-,N/A,,Clear,320,2013-04-01 21:00:00